FW5721 Weather Reports


time (UTC)temp
C
wind
direction
speed
KPH
gust
KPH
rain 1hr
cm
rain 24hr
cm
rain mn
cm
humidity
%
barometer
mb
20260506164105 14 197 4.8 8.0 0.48 1.02 0.48 3 1011.1
20260506163604 14 207 4.8 11.3 0.48 1.04 0.48 3 1011.2
20260506163104 15 185 8.0 12.9 0.46 1.02 0.46 3 1011.2
20260506162604 15 174 4.8 11.3 0.43 0.99 0.43 3 1011.2
20260506162104 15 196 4.8 8.0 0.36 0.97 0.36 3 1011.3
20260506161604 15 184 3.2 4.8 0.30 0.89 0.30 3 1011.4
20260506161104 15 194 3.2 9.7 0.25 0.86 0.25 3 1011.5
20260506160604 15 166 4.8 9.7 0.23 0.86 0.23 3 1011.4
20260506160105 16 194 3.2 8.0 0.18 0.84 0.18 3 1011.6
20260506155604 16 195 0.0 4.8 0.15 0.79 0.15 3 1011.5
20260506155104 16 172 3.2 4.8 0.10 0.76 0.10 3 1011.4
20260506154604 16 183 4.8 11.3 0.03 0.69 0.03 8 1011.3
20260506154104 16 139 6.4 14.5 0.00 0.66 0.00 13 1011.2
20260506153604 16 138 8.0 16.1 0.00 0.66 0.00 15 1011.1
20260506153104 16 148 11.3 14.5 0.00 0.66 0.00 18 1011.1
20260506152604 16 151 9.7 14.5 0.00 0.66 0.00 19 1011.1
20260506152104 16 135 4.8 14.5 0.00 0.66 0.00 20 1010.9
20260506151604 16 131 8.0 20.9 0.00 0.66 0.00 21 1010.9
20260506151104 16 148 9.7 20.9 0.00 0.66 0.00 22 1010.8
20260506150104 16 142 14.5 19.3 0.00 0.66 0.00 25 1010.9
20260506145104 16 125 6.4 14.5 0.00 0.66 0.00 27 1010.9
20260506144604 17 137 6.4 16.1 0.00 0.66 0.00 27 1010.8
20260506144104 17 135 4.8 11.3 0.00 0.66 0.00 29 1010.8
20260506143105 17 164 8.0 22.5 0.00 0.66 0.00 29 1010.8
20260506142604 17 212 11.3 20.9 0.00 0.66 0.00 31 1010.6
20260506142104 17 192 9.7 19.3 0.00 0.66 0.00 30 1010.6
20260506141604 17 186 9.7 19.3 0.00 0.66 0.00 31 1010.6
20260506141104 17 151 8.0 19.3 0.00 0.66 0.00 33 1010.7
20260506140604 17 147 9.7 16.1 0.00 0.66 0.00 33 1010.7
20260506140104 17 148 6.4 14.5 0.00 0.66 0.00 31 1010.8
20260506135604 17 178 9.7 22.5 0.00 0.66 0.00 33 1010.8
20260506135104 17 143 9.7 16.1 0.00 0.66 0.00 34 1010.9
20260506134604 17 157 8.0 14.5 0.00 0.66 0.00 34 1010.9
20260506134104 17 178 4.8 16.1 0.00 0.66 0.00 33 1010.9
20260506133604 17 169 9.7 22.5 0.00 0.66 0.00 34 1011.0
20260506133104 17 171 9.7 22.5 0.00 0.66 0.00 36 1011.0
20260506132604 18 159 12.9 20.9 0.00 0.66 0.00 36 1011.0
20260506131604 18 189 4.8 12.9 0.00 0.66 0.00 33 1011.0
20260506131103 18 202 4.8 16.1 0.00 0.66 0.00 35 1011.1
20260506130604 17 134 9.7 16.1 0.00 0.66 0.00 32 1011.0
20260506130104 17 158 4.8 16.1 0.00 0.66 0.00 24 1011.1
20260506125604 17 156 6.4 12.9 0.00 0.66 0.00 22 1011.2
20260506125104 17 141 8.0 19.3 0.00 0.69 0.00 29 1011.3
20260506124604 17 174 9.7 20.9 0.00 0.69 0.00 30 1011.4
20260506124104 17 177 12.9 22.5 0.00 0.69 0.00 32 1011.4
20260506123604 17 164 9.7 16.1 0.00 0.69 0.00 29 1011.5
20260506123103 17 157 9.7 14.5 0.00 0.69 0.00 28 1011.4
20260506122604 17 197 11.3 22.5 0.00 0.69 0.00 31 1011.5
20260506122103 17 193 9.7 27.4 0.00 0.69 0.00 33 1011.4
20260506121604 16 177 11.3 24.1 0.00 0.69 0.00 30 1011.3
20260506120604 17 211 8.0 14.5 0.00 0.69 0.00 25 1011.3
20260506120104 17 162 8.0 12.9 0.00 0.69 0.00 22 1011.4
20260506115603 16 156 9.7 16.1 0.00 0.69 0.00 22 1011.4
20260506115104 16 112 4.8 16.1 0.00 0.69 0.00 23 1011.3
20260506114604 16 103 6.4 14.5 0.00 0.69 0.00 19 1011.5
20260506114104 16 85 6.4 12.9 0.00 0.69 0.00 22 1011.5
20260506113604 16 105 9.7 12.9 0.00 0.69 0.00 24 1011.6
20260506113104 16 128 3.2 11.3 0.00 0.69 0.00 23 1011.6
20260506112604 16 103 9.7 16.1 0.00 0.69 0.00 25 1011.6
20260506112104 16 65 9.7 16.1 0.00 0.69 0.00 26 1011.6
20260506111604 16 57 11.3 19.3 0.00 0.69 0.00 23 1011.6
20260506110603 16 18 14.5 19.3 0.00 0.69 0.00 23 1011.5
20260506110104 16 50 6.4 12.9 0.00 0.69 0.00 20 1011.6
20260506105605 16 94 4.8 11.3 0.00 0.69 0.00 17 1011.6
20260506105104 16 105 6.4 11.3 0.00 0.69 0.00 17 1011.6
20260506104604 16 67 11.3 19.3 0.00 0.69 0.00 20 1011.7
20260506104104 16 5 11.3 19.3 0.00 0.69 0.00 15 1011.7
20260506103604 16 34 9.7 16.1 0.00 0.69 0.00 11 1011.8
20260506103103 16 92 9.7 14.5 0.00 0.69 0.00 9 1011.8
20260506102604 16 56 8.0 14.5 0.00 0.69 0.00 8 1011.9
20260506102104 16 41 4.8 9.7 0.00 0.69 0.00 3 1011.9
20260506101604 16 24 0.0 4.8 0.00 0.69 0.00 3 1012.0
20260506101103 15 55 9.7 12.9 0.00 0.69 0.00 3 1012.0
20260506100604 15 32 11.3 16.1 0.00 0.69 0.00 3 1012.0
20260506100104 15 71 11.3 19.3 0.00 0.69 0.00 3 1012.0
20260506095603 16 71 4.8 12.9 0.00 0.69 0.00 3 1012.1
20260506095103 15 123 3.2 9.7 0.00 0.69 0.00 3 1012.1
20260506094604 15 143 3.2 9.7 0.00 0.69 0.00 3 1012.2
20260506094104 15 85 3.2 4.8 0.00 0.69 0.00 3 1012.1
20260506093603 15 103 3.2 4.8 0.00 0.69 0.00 3 1012.0
20260506092603 14 72 6.4 12.9 0.00 0.69 0.00 3 1012.0
20260506091604 14 67 4.8 11.3 0.00 0.69 0.00 3 1011.9
20260506091103 14 41 4.8 9.7 0.00 0.69 0.00 3 1011.8
20260506085604 13 329 0.0 0.0 0.00 0.69 0.00 3 1011.8
20260506085103 13 329 0.0 3.2 0.00 0.69 0.00 3 1011.8
20260506084603 13 327 1.6 3.2 0.00 0.69 0.00 3 1011.8
20260506084103 13 344 0.0 3.2 0.00 0.69 0.00 3 1011.7
20260506083603 13 346 1.6 3.2 0.00 0.69 0.00 3 1011.6
20260506083104 13 0 0.0 4.8 0.00 0.69 0.00 3 1011.7
20260506082104 13 346 1.6 4.8 0.00 0.69 0.00 3 1011.6
20260506081603 13 338 1.6 4.8 0.00 0.69 0.00 3 1011.6
20260506081103 13 333 1.6 4.8 0.00 0.69 0.00 3 1011.5
20260506080604 13 335 1.6 4.8 0.00 0.69 0.00 3 1011.5
20260506072604 13 4 3.2 4.8 0.00 0.69 0.00 3 1011.5
20260506072103 13 323 3.2 4.8 0.00 0.69 0.00 3 1011.5
20260506071103 13 248 0.0 1.6 0.00 0.69 0.00 3 1011.4
20260506070604 13 248 0.0 1.6 0.00 0.69 0.00 3 1011.4
20260506070103 13 248 0.0 1.6 0.00 0.69 0.00 3 1011.4
20260506062103 12 139 3.2 8.0 0.00 0.69 0.00 3 1011.1
20260506061604 12 187 3.2 4.8 0.00 0.69 0.00 3 1011.1
20260506060603 12 166 3.2 8.0 0.00 0.69 0.00 3 1011.1
20260506060105 12 174 3.2 4.8 0.00 0.69 0.00 3 1011.0
20260506051104 11 205 3.2 4.8 0.00 0.69 0.00 3 1010.5
20260506050604 11 157 3.2 4.8 0.00 0.69 0.00 3 1010.4
20260506050105 11 0 1.6 8.0 0.00 0.69 0.00 3 1010.3
20260506045104 11 180 4.8 8.0 0.00 0.69 0.00 3 1010.3
20260506044604 11 201 4.8 4.8 0.00 0.69 0.00 3 1010.3
20260506043103 11 161 4.8 8.0 0.00 0.69 0.00 3 1010.2
20260506042603 11 175 4.8 8.0 0.00 0.69 0.00 3 1010.1
20260506042103 11 170 4.8 9.7 0.00 0.69 0.00 3 1010.0
20260506041603 10 157 4.8 8.0 0.00 0.69 0.00 3 1010.0
20260506041103 10 160 4.8 8.0 0.00 0.69 0.00 3 1010.0
20260506040604 10 174 4.8 9.7 0.00 0.69 0.00 3 1010.0
20260506035104 10 168 4.8 9.7 0.00 0.69 0.00 3 1010.0
20260506034604 10 176 4.8 9.7 0.00 0.69 0.00 3 1010.0
20260506033603 10 177 6.4 11.3 0.00 0.69 0.00 3 1010.0
20260506033103 10 167 4.8 11.3 0.00 0.69 0.00 3 1010.0
20260506032603 10 162 8.0 9.7 0.00 0.69 0.00 3 1009.9
20260506032103 10 165 8.0 9.7 0.00 0.69 0.00 3 1009.9
20260506031605 10 171 4.8 11.3 0.00 0.69 0.00 3 1010.0
20260506031104 10 168 4.8 9.7 0.00 0.69 0.00 3 1009.9
20260506030604 10 176 8.0 9.7 0.00 0.69 0.00 3 1009.9
20260506030104 10 171 8.0 11.3 0.00 0.69 0.00 3 1009.9
20260506025604 9 174 8.0 11.3 0.00 0.69 0.00 3 1009.9
20260506025104 10 169 6.4 11.3 0.00 0.69 0.00 3 1009.9
20260506024603 10 162 6.4 11.3 0.00 0.69 0.00 3 1009.8
20260506024104 10 160 8.0 11.3 0.00 0.69 0.00 3 1009.8
20260506023604 10 161 8.0 11.3 0.00 0.69 0.00 3 1009.8
20260506023104 10 166 6.4 12.9 0.00 0.69 0.00 3 1009.8
20260506022603 10 170 6.4 11.3 0.00 0.69 0.00 3 1009.7
20260506022104 10 139 8.0 12.9 0.00 0.69 0.00 3 1009.8
20260506021604 10 161 8.0 9.7 0.00 0.69 0.00 3 1009.8
20260506021103 10 168 8.0 11.3 0.00 0.69 0.00 3 1009.8
20260506020603 10 174 8.0 9.7 0.00 0.69 0.00 3 1009.7
20260506020105 10 148 4.8 14.5 0.00 0.69 0.00 3 1009.7
20260506015603 10 176 6.4 11.3 0.00 0.71 0.00 3 1009.7
20260506014104 10 167 8.0 12.9 0.00 0.71 0.00 3 1009.8
20260506013603 10 168 6.4 11.3 0.00 0.71 0.00 3 1009.8
20260506013103 10 173 8.0 9.7 0.00 0.71 0.00 3 1009.7
20260506012604 10 164 4.8 9.7 0.00 0.71 0.00 3 1009.8
20260506012104 10 155 4.8 11.3 0.00 0.71 0.00 3 1009.7
20260506011604 10 157 8.0 11.3 0.00 0.71 0.00 3 1009.7
20260506011105 10 151 4.8 9.7 0.00 0.71 0.00 3 1009.7
20260506010604 10 165 8.0 12.9 0.00 0.71 0.00 3 1009.8
20260506005103 10 152 4.8 11.3 0.00 0.94 0.00 3 1009.9
20260506004604 10 144 8.0 12.9 0.00 1.09 0.00 3 1010.0
20260506003604 10 183 8.0 11.3 0.00 1.17 0.00 3 1009.9
20260506003104 10 191 6.4 9.7 0.00 1.17 0.00 3 1010.0
20260506002603 10 183 8.0 11.3 0.00 1.17 0.00 3 1009.9
20260506002104 10 174 4.8 9.7 0.00 1.17 0.00 3 1009.9
20260506000604 10 159 4.8 9.7 0.00 1.17 0.00 3 1010.0
20260506000105 10 144 6.4 11.3 0.00 1.17 0.00 3 1010.0
20260505235604 10 150 6.4 11.3 0.00 1.17 0.00 3 1010.1
20260505235104 10 157 4.8 9.7 0.00 1.17 0.00 3 1010.2
20260505234604 10 165 4.8 9.7 0.00 1.17 0.00 3 1010.4
20260505234104 10 172 8.0 9.7 0.00 1.17 0.00 3 1010.5
20260505233604 10 163 6.4 9.7 0.00 1.17 0.00 3 1010.5
20260505233104 10 179 4.8 9.7 0.00 1.17 0.00 3 1010.6
20260505232104 10 159 8.0 11.3 0.00 1.17 0.00 3 1010.7
20260505231604 11 168 8.0 11.3 0.00 1.17 0.00 3 1010.6
20260505230604 11 167 8.0 9.7 0.00 1.17 0.00 3 1010.4
20260505230104 11 223 4.8 8.0 0.00 1.17 0.00 3 1010.5
20260505225103 11 167 4.8 9.7 0.00 1.17 0.00 3 1010.6
20260505224604 12 180 4.8 8.0 0.00 1.17 0.00 3 1010.7
20260505224105 12 184 3.2 8.0 0.00 1.17 0.00 3 1010.7
20260505223605 12 142 3.2 4.8 0.00 1.17 0.00 3 1010.8
20260505222604 13 181 3.2 8.0 0.00 1.17 0.00 3 1010.9
20260505222103 13 72 4.8 12.9 0.00 1.17 0.00 3 1010.9
20260505221604 13 78 11.3 19.3 0.00 1.17 0.00 3 1010.9
20260505221104 13 58 16.1 22.5 0.00 1.17 0.00 3 1011.0
20260505220604 13 46 14.5 22.5 0.00 1.17 0.00 3 1011.1
20260505220104 13 48 17.7 24.1 0.00 1.17 0.00 3 1011.2
20260505215603 13 49 17.7 25.7 0.00 1.17 1.17 3 1011.2
20260505215103 13 49 17.7 22.5 0.00 1.17 1.17 3 1011.2
20260505213604 13 38 22.5 29.0 0.00 1.17 1.17 3 1011.3
20260505213104 13 32 19.3 27.4 0.00 1.17 1.17 3 1011.4
20260505212603 13 25 20.9 27.4 0.00 1.17 1.17 3 1011.5
20260505211603 12 44 22.5 32.2 0.00 1.17 1.17 3 1011.4
20260505210604 12 33 27.4 35.4 0.00 1.17 1.17 3 1011.4
20260505210104 12 34 20.9 25.7 0.00 1.17 1.17 3 1011.5
20260505205605 12 48 19.3 27.4 0.03 1.17 1.17 3 1011.6
20260505204604 12 19 22.5 29.0 0.15 1.17 1.17 3 1011.2
20260505204104 12 32 24.1 33.8 0.30 1.17 1.17 3 1011.4
20260505203603 12 28 14.5 25.7 0.38 1.17 1.17 3 1011.4
20260505203104 12 42 9.7 20.9 0.43 1.17 1.17 3 1011.3
20260505202603 12 82 3.2 9.7 0.46 1.17 1.17 3 1011.5
20260505202104 12 170 3.2 19.3 0.46 1.17 1.17 3 1011.5
20260505201604 12 51 3.2 8.0 0.46 1.17 1.17 3 1011.5
20260505201104 12 34 3.2 4.8 0.46 1.17 1.17 3 1011.6
20260505200604 11 27 4.8 9.7 0.48 1.17 1.17 3 1011.4
20260505200104 11 23 11.3 19.3 0.51 1.17 1.17 3 1011.4
20260505195604 11 23 11.3 19.3 0.48 1.14 1.14 3 1011.2
20260505194603 11 49 14.5 16.1 0.38 1.02 1.02 3 1011.1
20260505193604 12 354 14.5 20.9 0.15 0.79 0.79 3 1011.2
20260505193104 12 335 11.3 19.3 0.10 0.71 0.71 3 1011.1
20260505192604 12 3 19.3 29.0 0.08 0.71 0.71 3 1011.0
20260505192104 12 12 29.0 38.6 0.08 0.71 0.71 3 1010.8
20260505191603 12 11 22.5 33.8 0.08 0.71 0.71 3 1011.0
20260505191104 12 6 25.7 35.4 0.08 0.71 0.71 3 1011.0
20260505190604 12 12 22.5 37.0 0.05 0.69 0.69 3 1011.0
20260505190105 13 4 29.0 45.1 0.05 0.66 0.66 3 1010.9
20260505185604 12 50 30.6 45.1 0.05 0.66 0.66 3 1010.7
20260505184604 15 21 11.3 19.3 0.03 0.64 0.64 3 1010.2
20260505184104 15 154 0.0 1.6 0.00 0.61 0.61 3 1009.9
20260505183604 15 154 0.0 3.2 0.00 0.61 0.61 3 1009.7
20260505183104 15 154 1.6 4.8 0.00 0.61 0.61 3 1009.6
20260505182604 15 155 4.8 11.3 0.00 0.61 0.61 3 1009.4
20260505182104 16 159 3.2 4.8 0.00 0.61 0.61 3 1009.4
20260505181104 16 143 3.2 4.8 0.00 0.61 0.61 3 1009.5
20260505180104 16 257 0.0 0.0 0.00 0.61 0.61 3 1009.5
20260505175604 15 329 0.0 3.2 0.00 0.61 0.61 3 1009.4
20260505175105 15 136 1.6 3.2 0.00 0.61 0.61 3 1009.4
20260505174604 15 132 3.2 8.0 0.00 0.61 0.61 3 1009.4
20260505173604 15 116 4.8 4.8 0.00 0.61 0.61 3 1009.2
20260505173104 15 115 0.0 4.8 0.03 0.61 0.61 3 1009.2
20260505172603 15 108 4.8 9.7 0.03 0.61 0.61 3 1009.2
20260505172104 16 134 3.2 4.8 0.03 0.61 0.61 3 1009.3
20260505171604 16 198 0.0 1.6 0.05 0.61 0.61 3 1009.3
20260505170604 16 319 0.0 3.2 0.05 0.61 0.61 3 1009.2
20260505170104 16 293 1.6 3.2 0.08 0.61 0.61 3 1009.2
20260505165604 16 218 3.2 9.7 0.13 0.61 0.61 3 1009.2
20260505165104 16 224 4.8 11.3 0.13 0.61 0.61 3 1009.2
20260505164603 16 229 1.6 9.7 0.13 0.61 0.61 3 1009.3